Tracking 29892 objects as of 21-Nov-2024
HD Live streaming from Space Station
objects crossing your sky now

STARLINK-30460

Track STARLINK-30460 now!
10-day predictions
STARLINK-30460 is classified as:


NORAD ID: 57870
Int'l Code: 2023-144G
Perigee: 565.2 km
Apogee: 567.0 km
Inclination: 43.0 °
Period: 95.8 minutes
Semi major axis: 6937 km
RCS: Unknown
Launch date: September 16, 2023
Source: United States (US)
Launch site: AIR FORCE EASTERN TEST RANGE (AFETR)
Your satellite tracking list
Your tracking list is empty




NASA's NSSDC Master Catalog

Two Line Element Set (TLE):
1 57870U 23144G   24324.47935220  .00024734  00000-0  18376-2 0  9995
2 57870  43.0030 349.9010 0001241 286.0126  74.0579 15.02576944 66128
Source of the keplerian elements: AFSPC